Simultaneous Nadir Overpasses (SNOs) Predictions

Prediction of SNOs between FY3D and TERRA Satellite Orbit:

Table of predicted SNOs for the next 14.0 days since TLE Epoch: 4/20/2024
Index Date (FY3D) Time (FY3D) Lat,Lon (FY3D) SZA (FY3D ) Date (TERRA) Time (TERRA) Lat,Lon (TERRA) SZA (TERRA ) Distance(km) Time Diff (sec)
1 04/20/2024 13:13:42 -75.44, 161.47 116.45 04/20/2024 13:14:54 -75.42, 161.64 116.47 4.92 72
2 04/20/2024 14:04:27 75.35, -30.96 63.46 04/20/2024 14:04:17 75.33, -30.94 63.44 2.22 10
3 04/23/2024 01:17:27 75.39, 160.73 62.67 04/23/2024 01:17:51 75.37, 160.73 62.65 2.13 24
4 04/23/2024 02:08:10 -75.34, -31.79 117.40 04/23/2024 02:07:13 -75.35, -31.67 117.39 3.68 57
5 04/25/2024 12:30:26 75.45, -7.64 61.91 04/25/2024 12:31:22 75.44, -7.52 61.90 3.58 56
6 04/25/2024 13:21:08 -75.34, 160.00 118.21 04/25/2024 13:20:45 -75.37, 159.95 118.18 3.32 23
7 04/28/2024 00:34:08 -75.41, -8.40 118.93 04/28/2024 00:34:16 -75.41, -8.35 118.92 1.54 8
8 04/28/2024 01:24:51 75.24, 159.41 60.91 04/28/2024 01:23:39 75.30, 159.02 60.96 12.90 72
9 04/30/2024 11:47:07 -75.44,-176.71 119.65 04/30/2024 11:47:46 -75.43,-176.71 119.67 1.39 39
10 04/30/2024 12:37:52 75.38, -9.20 60.28 04/30/2024 12:37:08 75.36, -9.23 60.26 1.86 44
11 05/02/2024 23:00:06 -75.49, 14.93 120.34 05/02/2024 23:01:14 -75.47, 15.01 120.36 2.99 68
12 05/02/2024 23:50:50 75.39,-177.43 59.55 05/02/2024 23:50:36 75.40,-177.53 59.56 3.22 14



Historial Predications of SNOs between FY3D and TERRA
